Weather in Westerland

Germany     54°54′17″N   8°18′38″E
temp.,
°C
wind,
m/s
gust,
m/s
humid.,
%
clouds,
%
prec.,
mm/h
press.,
hPa
HPBL,
m
30 june, thu
thu3023:00+19ese913769 0.0 1015260
02:00+18ese9138242 0.0 1015277
05:00+18ese8108232 0.0 1014253
08:00+18ese810842 0.0 1014403
11:00+20ese68725 0.0 1014154
14:00+21ese44675 0.0 101327
17:00+21e567111 0.0 101260
20:00+21e79735 0.0 1011154
1 july, fri
fri123:00+19e711800 0.0 1012208
02:00+19e7118675 0.0 1011232
05:00+18sse7996100 2.1 1011481
08:00+17w101191100 3.1 1012710
11:00+16wsw8990100 2.8 1014607
14:00+17wsw8876100 4.4 1015921
17:00+17wsw91074100 0.0 1016898
20:00+17wsw7872100 0.0 1017857
2 july, sat
sat223:00+17wsw8974100 0.0 1018862
02:00+17wsw78730 0.0 1019954
05:00+18sw810745 0.0 1018893
08:00+18sw99780 0.0 1019710
11:00+18sw10107918 0.5 1020713
14:00+18sw89780 0.6 1021719
17:00+18sw71077100 0.0 1021914
20:00+18ssw577275 0.0 1020530
3 july, sun
sun323:00+18sse4573100 0.0 1019294
02:00+18se8127724 0.0 1017393
05:00+19s8127633 0.9 1016366
08:00+18w5677100 1.1 1016371
11:00+18wnw6677100 0.0 1017470
14:00+18w5574100 0.0 1018673
17:00+18wsw567164 0.0 1018805
20:00+17w6672100 0.0 1017819
4 july, mon
mon423:00+17w78740 0.0 10181007
02:00+17w78760 0.1 1017923
05:00+17w99745 0.4 10171031
08:00+16w89724 0.4 1018963
11:00+17wsw89745 0.1 1018878
14:00+17wsw910725 0.3 10181106
17:00+17wsw99720 0.4 10181072
20:00+17wsw89732 0.4 10181023